Location: Juniper Campground
(35.7953°N, 106.2814°W)
Time: 22:46:42
(UTC-07:00)

Envisat - Pass Details

Date: 22 August 2018
Orbit: 764 x 766 km, 98.2° (Epoch: 17 November)

Event Time Altitude Azimuth Distance (km) Brightness Sun altitude
Rises 20:20:35 0° 170° (S) 3,207 5.9 -7.5°
Reaches altitude 10° 20:22:53 10° 172° (S) 2,285 5.2 -8.0°
Maximum altitude 20:27:55 76° 257° (WSW) 787 3.2 -8.9°
Drops below altitude 10° 20:32:59 10° 344° (NNW) 2,301 6.0 -9.9°
Sets 20:35:19 0° 346° (NNW) 3,231 6.8 -10.3°
